www.pogodaiklimat.ru

Погода и климат >> Архив погоды >> Австралия >> Северная территория >> Раббит Флат


ПОГОДА в Раббит Флат

  • Прогноз погоды в Раббит Флат
  • Монитор погоды в Раббит Флат

АРХИВ ПОГОДЫ в Раббит Флат

Время (UTC), дата Ветер
(напр.,м/с)
 
Видим.   Явления Облачность Т
(С)
Тd
(С)
f
(%)
Тe
(С)
Тes
(С)
Комфортность P
(гПа)
Po
(гПа)
Тmin
(С)
Tmax
(С)
R
(мм)
R24
(мм)
S
(см)
08 19.03 В 5 н/о н/о +39.6 -4.6 6 +35 +35 очень
жарко
1004.3 966.9
09 19.03 В 5 н/о н/о +38.8 -3.2 7 +35 +35 очень
жарко
1004.5 967.1
11 19.03 СВ 2 н/о н/о +29.6 -2.8 12 +26 +26 жарко 1006.5 969.0
12 19.03 В 1 н/о н/о +28.2 -2.8 13 +25 +25 комфорт 1006.7 969.3
14 19.03 штиль 0 н/о н/о +24.5 -1.3 18 +23 +23 комфорт 1006.9 969.4 +41.7
15 19.03 З 2 н/о н/о +24.0 -1.0 19 +23 +23 комфорт 1006.8 969.4
17 19.03 Ю 3 н/о н/о +22.5 +0.9 24 +22 +22 комфорт 1005.7 968.2
18 19.03 Ю 2 н/о н/о +21.7 +0.3 24 +21 +21 комфорт 1005.5 968.1
20 19.03 В 3 н/о н/о +23.7 +0.7 22 +23 +23 комфорт 1007.0 969.5
21 19.03 В 4 н/о н/о +25.0 +0.5 20 +24 +24 комфорт 1007.2 969.7
23 19.03 В 7 н/о н/о +33.7 +0.4 12 +30 +30 жарко 1009.0 971.4
00 20.03 В 7 н/о н/о +35.6 +0.6 11 +32 +32 жарко 1009.0 971.5
02 20.03 В 7 н/о н/о +40.6 0.0 8 +37 +37 очень
жарко
1007.7 970.2 +21.2
03 20.03 В 6 н/о н/о +40.8 -1.7 7 +37 +37 очень
жарко
1007.3 969.8
05 20.03 В 6 н/о н/о +42.2 -0.7 7 +38 +38 очень
жарко
1004.9 967.5
06 20.03 ЮВ 7 н/о н/о +41.6 -1.1 7 +38 +38 очень
жарко
1004.6 967.2
08 20.03 ЮВ 5 н/о н/о +40.3 -0.3 8 +36 +36 очень
жарко
1004.4 967.0
09 20.03 В 4 н/о н/о +39.7 -0.7 8 +36 +36 очень
жарко
1004.6 967.2
11 20.03 В 2 н/о н/о +30.9 -0.7 13 +28 +28 жарко 1006.5 969.0
12 20.03 Ю 2 н/о н/о +30.1 -0.3 14 +27 +27 жарко 1006.8 969.4
14 20.03 СВ 1 н/о н/о +25.9 +0.5 19 +24 +24 комфорт 1006.9 969.4 +42.4
15 20.03 СВ 2 н/о н/о +25.4 +0.8 20 +24 +24 комфорт 1006.5 969.1
17 20.03 З 2 н/о н/о +23.4 +1.1 23 +22 +22 комфорт 1005.9 968.4
18 20.03 Ю 4 н/о н/о +25.8 +3.1 23 +25 +25 комфорт 1006.1 968.7
20 20.03 Ю 2 н/о н/о +24.5 +2.6 24 +24 +24 комфорт 1007.1 969.6
21 20.03 В 2 н/о н/о +24.2 +2.4 24 +23 +23 комфорт 1007.2 969.7
23 20.03 В 7 н/о н/о +34.3 +0.8 12 +31 +31 жарко 1009.0 971.4
00 21.03 В 8 н/о н/о +35.3 +0.4 11 +32 +32 жарко 1009.0 971.5
02 21.03 В 7 н/о н/о +41.0 -1.6 7 +37 +37 очень
жарко
1007.5 970.0 +22.4
03 21.03 В 6 н/о н/о +40.4 -0.2 8 +37 +37 очень
жарко
1006.9 969.5
05 21.03 ЮВ 4 н/о н/о +40.8 -1.7 7 +37 +37 очень
жарко
1004.2 966.8
06 21.03 В 5 н/о н/о +41.3 -1.4 7 +37 +37 очень
жарко
1003.7 966.4
09 21.03 ЮВ 5 н/о н/о +40.1 -2.2 7 +36 +36 очень
жарко
1003.4 966.1
11 21.03 ЮВ 3 н/о н/о +31.8 -1.1 12 +28 +28 жарко 1005.5 968.0
12 21.03 ЮВ 3 н/о н/о +31.1 -1.6 12 +28 +28 жарко 1005.6 968.2
14 21.03 В 2 н/о н/о +27.9 -1.1 15 +25 +25 комфорт 1006.1 968.6 +42.3
17 21.03 С 2 н/о н/о +23.6 0.0 21 +22 +22 комфорт 1005.6 968.1
18 21.03 штиль 0 н/о н/о +23.4 +1.1 23 +22 +22 комфорт 1005.8 968.4
23 21.03 В 8 н/о н/о +34.9 +1.3 12 +32 +32 жарко 1006.9 969.4
02 22.03 В 7 н/о н/о +40.0 +2.6 10 +37 +37 очень
жарко
1006.1 968.6 +19.2
03 22.03 В 6 н/о н/о +40.9 +3.3 10 +38 +38 очень
жарко
1005.5 968.1
05 22.03 В 4 н/о н/о +41.5 +2.3 9 +38 +38 очень
жарко
1002.8 965.4
06 22.03 В 6 н/о н/о +41.5 +2.3 9 +38 +38 очень
жарко
1002.5 965.2
08 22.03 В 5 н/о н/о +40.4 -0.2 8 +37 +37 очень
жарко
1002.1 964.8
09 22.03 В 3 н/о н/о +39.4 -0.9 8 +36 +36 очень
жарко
1002.1 964.8
11 22.03 ЮВ 2 н/о н/о +32.0 +1.2 14 +29 +29 жарко 1003.9 966.5
12 22.03 В 1 н/о н/о +31.4 +0.7 14 +28 +28 жарко 1004.3 966.9
14 22.03 штиль 0 н/о н/о +28.2 +2.4 19 +26 +26 жарко 1005.1 967.7 +42.5
15 22.03 ЮЗ 2 н/о н/о +27.5 +2.6 20 +26 +26 жарко 1004.9 967.5
17 22.03 З 1 н/о н/о +25.5 +3.5 24 +25 +25 комфорт 1003.6 966.2
18 22.03 СВ 1 н/о н/о +25.1 +4.3 26 +24 +24 комфорт 1003.5 966.2
20 22.03 З 2 н/о н/о +23.4 +4.4 29 +23 +23 комфорт 1003.3 965.9
21 22.03 СЗ 3 н/о н/о +23.0 +4.0 29 +23 +23 комфорт 1003.2 965.9
23 22.03 В 6 н/о н/о +33.9 +6.3 18 +32 +32 жарко 1005.9 968.4
00 23.03 СВ 5 н/о н/о +36.3 +8.2 18 +34 +34 очень
жарко
1005.5 968.1
02 23.03 СВ 6 н/о н/о +39.6 +11.7 19 +39 +39 очень
жарко
1004.3 966.9 +22.9
03 23.03 В 6 н/о н/о +38.9 +10.3 18 +38 +38 очень
жарко
1003.6 966.3
05 23.03 Ю 2 н/о н/о +40.0 +6.4 13 +37 +37 очень
жарко
1001.6 964.3
06 23.03 ЮВ 4 н/о н/о +39.2 +7.8 15 +37 +37 очень
жарко
1001.3 964.0
08 23.03 СВ 3 н/о н/о +39.1 +7.7 15 +37 +37 очень
жарко
1001.0 963.7
09 23.03 СВ 5 н/о н/о +38.7 +9.3 17 +37 +37 очень
жарко
1001.1 963.8
11 23.03 СВ 2 н/о н/о +33.6 +9.0 22 +32 +32 жарко 1002.6 965.2
12 23.03 штиль 0 н/о н/о +32.4 +9.9 25 +32 +32 жарко 1002.5 965.2
14 23.03 С 2 н/о н/о +31.1 +8.2 24 +30 +30 жарко 1003.8 966.4 +42.3
15 23.03 С 2 н/о н/о +30.2 +8.6 26 +30 +30 жарко 1003.7 966.4
17 23.03 СЗ 3 н/о н/о +27.2 +8.6 31 +27 +27 жарко 1003.5 966.1
18 23.03 С 2 н/о н/о +27.9 +8.7 30 +28 +28 жарко 1003.3 966.0
20 23.03 С 3 н/о н/о +28.5 +10.7 33 +29 +29 жарко 1004.0 966.6
21 23.03 С 3 н/о н/о +27.8 +10.9 35 +29 +29 жарко 1004.3 966.9
23 23.03 ЮЗ 2 н/о н/о +33.0 +15.5 35 +35 +35 душно 1005.6 968.1
00 24.03 Ю 2 н/о н/о +34.2 +16.5 35 +37 +37 очень
душно
1005.6 968.2
02 24.03 ЮЗ 6 н/о н/о +37.8 +16.1 28 +40 +40 очень
душно
1004.2 966.8 +27.2
03 24.03 ЮЗ 6 н/о н/о +37.3 +15.2 27 +39 +39 очень
душно
1003.6 966.3
05 24.03 Ю 7 н/о н/о +39.1 +12.0 20 +39 +39 очень
жарко
1000.8 963.5
06 24.03 Ю 5 н/о н/о +40.6 +11.7 18 +40 +40 очень
жарко
1000.3 963.1
08 24.03 Ю 4 н/о н/о +38.4 +10.7 19 +37 +37 очень
жарко
1000.6 963.3
09 24.03 З 7 н/о н/о +35.5 +15.3 30 +37 +37 душно 1001.2 963.9
11 24.03 З 5 н/о н/о +32.0 +18.2 44 +37 +37 очень
душно
1003.2 965.8
12 24.03 З 5 н/о н/о +31.7 +18.7 46 +37 +37 очень
душно
1003.6 966.3
14 24.03 З 4 н/о н/о +29.9 +16.7 45 +33 +33 душно 1004.2 966.8 +41.1
15 24.03 З 4 н/о н/о +29.7 +16.5 45 +33 +33 душно 1004.1 966.7
17 24.03 В 3 н/о н/о +28.1 +16.4 49 +32 +32 душно 1004.3 966.9
18 24.03 ЮВ 3 н/о н/о +27.3 +16.3 51 +31 +31 душно 1004.4 967.0
20 24.03 З 2 н/о н/о +26.5 +16.1 53 +30 +30 душно 1006.3 968.8
21 24.03 З 3 н/о н/о +26.6 +16.2 53 +30 +30 душно 1006.6 969.2
23 24.03 З 5 н/о н/о +32.4 +17.8 42 +37 +37 очень
душно
1007.7 970.2
00 25.03 ЮЗ 5 н/о н/о +33.2 +17.8 40 +37 +37 очень
душно
1007.9 970.4
02 25.03 З 6 н/о н/о +36.4 +17.0 32 +39 +39 очень
душно
1006.8 969.3 +25.9
03 25.03 ЮЗ 3 н/о н/о +36.7 +16.8 31 +39 +39 очень
душно
1006.3 968.9
05 25.03 ЮЗ 5 н/о н/о +39.3 +13.7 22 +40 +40 очень
душно
1004.4 967.0
06 25.03 Ю 4 н/о н/о +39.6 +14.6 23 +40 +40 очень
душно
1004.2 966.8
08 25.03 Ю 4 н/о {туман} н/о +34.6 +17.8 37 +38 +38 очень
душно
1004.9 967.5
09 25.03 ЮЗ 7 н/о н/о +31.3 +19.0 48 +37 +37 очень
душно
1005.1 967.7
11 25.03 З 3 н/о {туман} н/о +30.1 +19.5 53 +36 +36 очень
душно
1008.4 970.8 0.4
12 25.03 ЮЗ 5 н/о н/о +29.0 +20.7 61 +36 +36 очень
душно
1009.2 971.7
14 25.03 ЮВ 4 н/о н/о +27.0 +22.4 76 +35 +35 очень
душно
1010.6 972.9 +40.6
15 25.03 штиль 0 н/о н/о +27.2 +22.2 74 +35 +35 очень
душно
1010.5 972.9
17 25.03 З 4 н/о {осадки} н/о +26.9 +21.6 73 +34 +34 очень
душно
1010.0 972.4 0.6
18 25.03 ЮЗ 4 н/о н/о +26.7 +21.9 75 +34 +34 очень
душно
1010.1 972.6
20 25.03 Ю 3 н/о н/о +26.4 +22.5 79 +35 +35 очень
душно
1011.1 973.4
21 25.03 Ю 3 н/о н/о +26.5 +22.6 79 +35 +35 очень
душно
1011.3 973.7
23 25.03 ЮВ 6 н/о н/о +29.4 +15.1 42 +32 +32 душно 1012.2 974.5 0.6
00 26.03 ЮВ 7 н/о н/о +30.2 +14.3 38 +32 +32 жарко 1012.2 974.6
03 26.03 В 6 н/о н/о +34.9 +13.1 27 +35 +35 очень
жарко
1011.0 973.4
06 26.03 ЮВ 6 н/о н/о +37.2 +9.7 19 +36 +36 очень
жарко
1008.2 970.7

 

Местоположение метеостанции Раббит Флат (Северная территория, Австралия): широта -20.18 долгота 130.02 высота над уровнем моря 339 м.

В архиве по умолчанию представлена погода в Раббит Флат за последнюю неделю. Архивные данные за месяц целиком и за предыдущие месяцы, начиная с января 2011 года, Вы можете получить, выбрав интересующий диапазон дат из раскрывающегося списка и нажав кнопку "Ввод!".


*Определитесь, кто Вы:
робот инопланетянин человек

Внимание! Время в таблицах - всемирное. Для получения местного времени необходимо прибавить поправку, которая равна 9.5 ч.

Смотрите также архив погоды в соседних городах и на ближайших метеорологических станциях:

Погода в Ладжаману (Северная территория, Австралия) (216 км)
Погода в Холс Крик (Западная Австралия, Австралия) (329 км)
Погода в Кинторе (Северная территория, Австралия) (350 км)
Погода в Аэропорту Аргайл (Западная Австралия, Австралия) (428 км)
Погода в Виктория-Ривер (Северная территория, Австралия) (433 км)
Погода в Теннант-Крике (Северная территория, Австралия) (439 км)
Погода на Виноградной ферма (Северная территория, Австралия) (451 км)
Погода в Кунунарре (Западная Австралия, Австралия) (509 км)
Погода в Фицрой-Кроссинге (Западная Австралия, Австралия) (519 км)
Погода на Базе ВВС Delamere Weapons Range (Северная территория, Австралия) (532 км)

Пояснения к столбцам:

Ветер - указаны скорость ветра в м/с - средняя за 10 мин, порывы в срок и между сроками (в фигурных скобках) и направление, откуда дует ветер: С - северный, СВ - северо-восточный, В - восточный, ЮВ - юго-восточный, Ю - южный, ЮЗ - юго-западный, З - западный, СЗ - северо-западный.
Видимость - горизонтальная дальность видимости в метрах или километрах. При видимости от 1 до 10 км при отсутствии осадков обычно наблюдается дымка, при ухудшении видимости до 1 км и менее - туман. В сухую погоду видимость может ухудшаться дымом, пылью или мглою.
Явления - указаны атмосферные явления, наблюдавшиеся в срок или в последний час перед сроком; фигурными скобками обозначены явления, наблюдавшиеся между сроками (за 1-3 часа до срока); квадратными скобками обозначены град или гололедные отложения с указанием их диаметра в мм.
Облачность - указаны через наклонную черту общая и нижняя облачность в баллах и высота нижней границы облаков в метрах; квадратными скобками обозначены формы облаков: Ci - перистые, Cs - перисто-слоистые, Cc - перисто-кучевые, Ac - высококучевые, As - высокослоистые, Sc - слоисто-кучевые, Ns - слоисто-дождевые, Cu - кучевые, Cb - кучево-дождевые. Подробнее классификацию облаков см. в Атласе облаков (PDF).
T - Температура воздуха - температура, измеренная на высоте 2 м над землей.
Td - Температура точки росы - температура, при понижении до которой содержащийся в воздухе водяной пар достигнет насыщения.
f - Относительная влажность воздуха - влажноcть воздуха, измеренная на высоте 2 м над землей.
Te - Эффективная температура - температура, которую ощущает одетый по сезону человек в тени. Характеристика душности погоды. При расчете учитывается влияние влажности воздуха и скорости ветра на теплоощущения человека.
Tes - Эффективная температура на солнце - температура, которую ощущает человек, с поправкой на солнечный нагрев. Характеристика знойности погоды. Зависит от высоты солнца над горизонтом, облачности и скорости ветра. Ночью, в пасмурную погоду, а также при ветре 12 м/с и более поправка равна нулю.
P - Атмосферное давление - приведенное к уровню моря атмосферное давление.
Po - Атмосферное давление - измеренное на уровне метеостанции атмосферное давление.
Tmin - Минимальная температура - минимум температуры воздуха на высоте 2 м над землей.
Tmax - Максимальная температура - максимум температуры воздуха на высоте 2 м над землей.
R - Количество осадков - Количество выпавших осадков за период времени, мм. При наведении курсора мыши на число - период времени, за который выпало указанное количество осадков.
R24 - Количество осадков - Количество выпавших осадков за 24 часа, мм.
S - Снежный покров - Высота снежного покрова, см. При наведении курсора мыши на число - состояние снежного покрова и степень покрытия местности в баллах.